Date String (YYYY-MM-DD hh:mm:ss) UTC,Instrument flags,Ambient pressure (hPa),Sample flow (lpm),Bypass flow (lpm),Sample temperature (°C),Ambient temperature (°C),ASC tube jacket temperature (°C),LED temperature (°C),Box temperature (°C),Sample RH (%),Span deviation,Mass concentration (μg/m³),Mass concentration (μg/m³),Mass concentration (μg/m³)
DateTimeUTC,F1_M11,P_M11,Q1_M11,Q2_M11,T1_M11,T2_M11,T3_M11,T4_M11,T5_M11,U1_M11,ZSPAN_M11,X0_M11,X2_M11,X1_M11
2022-08-04 08:00:00,,0828.2,5.00,0.00,29.7,28.7,00.0,38.5,31.7,27.9,0002.8,0014.55,0008.21,0007.50
2022-08-04 08:01:00,,0828.2,5.00,0.00,29.7,28.8,00.0,38.5,31.7,27.8,0002.6,0014.58,0008.22,0007.50
2022-08-04 08:02:00,,0828.1,5.00,0.00,29.8,28.8,00.0,38.5,31.8,27.5,0002.3,0014.20,0008.19,0007.50
2022-08-04 08:03:00,,0828.2,5.00,0.00,29.8,28.8,00.0,38.5,31.8,27.2,0002.2,0013.16,0008.17,0007.50
2022-08-04 08:04:00,,0828.1,5.00,0.00,29.8,28.7,00.0,38.5,31.7,27.1,0001.7,0013.15,0008.21,0007.49
2022-08-04 08:05:00,,0828.1,4.98,0.00,29.8,27.9,00.0,38.5,31.6,26.9,0001.1,0012.63,0008.21,0007.49
2022-08-04 08:06:00,,0828.1,5.01,0.00,29.7,27.5,00.0,38.5,31.5,26.7,0000.6,0012.27,0008.17,0007.46
2022-08-04 08:07:00,,0828.1,4.99,0.00,29.7,27.4,00.0,38.4,31.4,26.7,0000.9,0012.24,0008.09,0007.39
2022-08-04 08:08:00,,0828.1,5.00,0.00,29.6,27.5,00.0,38.4,31.3,26.9,0000.8,0012.32,0008.01,0007.33
2022-08-04 08:09:00,,0828.1,5.00,0.00,29.6,27.6,00.0,38.4,31.4,26.8,0000.7,0012.09,0007.90,0007.25
2022-08-04 08:10:00,,0828.1,5.00,0.00,29.6,27.7,00.0,38.4,31.4,26.7,0000.6,0011.80,0007.81,0007.17
2022-08-04 08:11:00,,0828.1,5.00,0.00,29.6,27.8,00.0,38.4,31.4,26.9,0000.2,0011.11,0007.71,0007.09
2022-08-04 08:12:00,,0828.1,5.02,0.00,29.6,28.0,00.0,38.4,31.4,26.8,0000.2,0010.86,0007.59,0007.01
2022-08-04 08:13:00,,0828.1,5.00,0.00,29.6,28.1,00.0,38.4,31.4,26.9,0000.4,0010.73,0007.51,0006.93
2022-08-04 08:14:00,,0828.1,5.00,0.00,29.6,28.2,00.0,38.4,31.5,27.3,0000.2,0010.71,0007.45,0006.87
2022-08-04 08:15:00,,0828.1,5.00,0.00,29.6,28.3,00.0,38.4,31.5,27.0,-000.0,0010.82,0007.34,0006.81
2022-08-04 08:16:00,,0828.2,5.01,0.00,29.6,28.4,00.0,38.4,31.5,26.6,0000.2,0010.80,0007.28,0006.74
2022-08-04 08:17:00,,0828.3,5.00,0.00,29.6,28.4,00.0,38.4,31.6,26.8,0000.6,0010.79,0007.22,0006.69
2022-08-04 08:18:00,,0828.2,5.00,0.00,29.7,28.5,00.0,38.4,31.6,26.8,0000.6,0010.91,0007.22,0006.67
2022-08-04 08:19:00,,0828.2,4.99,0.00,29.7,28.6,00.0,38.4,31.6,26.8,0000.7,0010.65,0007.19,0006.66
2022-08-04 08:20:00,,0828.2,5.01,0.00,29.7,28.6,00.0,38.4,31.6,26.8,0001.0,0010.71,0007.19,0006.66
2022-08-04 08:21:00,,0828.2,5.00,0.00,29.7,28.7,00.0,38.5,31.7,26.7,0001.4,0010.75,0007.20,0006.67
2022-08-04 08:22:00,,0828.2,5.00,0.00,29.7,28.7,00.0,38.5,31.7,26.5,0002.0,0010.61,0007.20,0006.68
2022-08-04 08:23:00,,0828.2,5.00,0.00,29.8,28.7,00.0,38.5,31.7,26.3,0001.8,0010.67,0007.21,0006.68
2022-08-04 08:24:00,,0828.2,5.00,0.00,29.8,28.8,00.0,38.5,31.8,26.3,0001.3,0010.69,0007.20,0006.68
2022-08-04 08:25:00,,0828.2,5.00,0.00,29.8,28.8,00.0,38.5,31.7,26.2,0001.5,0010.64,0007.19,0006.67
2022-08-04 08:26:00,,0828.2,5.00,0.00,29.8,28.8,00.0,38.6,31.8,26.1,0002.5,0010.25,0007.17,0006.65
2022-08-04 08:27:00,,0828.2,4.99,0.00,29.9,28.9,00.0,38.6,31.8,26.0,0002.4,0010.23,0007.15,0006.63
2022-08-04 08:28:00,,0828.2,4.99,0.00,29.9,28.7,00.0,38.6,31.8,25.9,0002.6,0010.59,0007.15,0006.61
2022-08-04 08:29:00,,0828.2,5.01,0.00,29.8,28.0,00.0,38.5,31.6,26.0,0002.6,0010.77,0007.14,0006.59
2022-08-04 08:30:00,,0828.2,5.00,0.00,29.8,27.6,00.0,38.5,31.5,26.0,0002.3,0010.69,0007.14,0006.59
2022-08-04 08:31:00,,0828.2,4.99,0.00,29.7,27.5,00.0,38.5,31.4,26.2,0001.9,0010.54,0007.09,0006.57
2022-08-04 08:32:00,,0828.2,5.01,0.00,29.6,27.5,00.0,38.5,31.4,26.3,0001.7,0010.42,0007.05,0006.56
2022-08-04 08:33:00,,0828.2,4.99,0.00,29.6,27.6,00.0,38.4,31.3,26.3,0001.5,0010.37,0007.03,0006.55
2022-08-04 08:34:00,,0828.3,5.00,0.00,29.6,27.7,00.0,38.4,31.4,26.4,0001.7,0010.38,0007.02,0006.54
2022-08-04 08:35:00,,0828.2,5.01,0.00,29.6,27.9,00.0,38.4,31.4,26.3,0001.5,0010.58,0007.07,0006.52
2022-08-04 08:36:00,,0828.2,5.00,0.00,29.6,28.0,00.0,38.4,31.4,26.2,0001.3,0010.60,0007.06,0006.51
2022-08-04 08:37:00,,0828.2,4.99,0.00,29.6,28.1,00.0,38.4,31.4,26.2,0000.7,0010.58,0007.05,0006.51
2022-08-04 08:38:00,,0828.2,5.01,0.00,29.6,28.2,00.0,38.4,31.5,26.2,0000.7,0010.47,0007.02,0006.51
2022-08-04 08:39:00,,0828.2,4.99,0.00,29.6,28.3,00.0,38.4,31.5,26.1,0000.5,0009.98,0006.98,0006.52
2022-08-04 08:40:00,,0828.2,5.00,0.00,29.6,28.4,00.0,38.4,31.5,26.1,0000.2,0009.62,0006.98,0006.53
2022-08-04 08:41:00,,0828.2,4.98,0.00,29.6,28.4,00.0,38.4,31.6,26.0,0000.4,0009.62,0006.99,0006.55
2022-08-04 08:42:00,,0828.2,5.00,0.00,29.7,28.5,00.0,38.4,31.6,26.0,0000.3,0009.73,0007.03,0006.55
2022-08-04 08:43:00,,0828.2,5.01,0.00,29.7,28.6,00.0,38.5,31.6,25.9,0000.0,0009.97,0007.09,0006.54
2022-08-04 08:44:00,,0828.2,4.99,0.00,29.7,28.6,00.0,38.5,31.7,25.8,0000.0,0010.13,0007.12,0006.55
2022-08-04 08:45:00,,0828.4,4.99,0.00,29.7,28.7,00.0,38.5,31.7,25.8,0000.0,0010.18,0007.14,0006.55
2022-08-04 08:46:00,,0828.2,5.00,0.00,29.8,28.7,00.0,38.5,31.7,25.7,0000.0,0010.00,0007.11,0006.55
2022-08-04 08:47:00,,0828.2,5.00,0.00,29.8,28.8,00.0,38.5,31.7,25.6,0000.0,0010.01,0007.14,0006.55
2022-08-04 08:48:00,,0828.2,5.00,0.00,29.8,28.8,00.0,38.5,31.7,25.6,0000.0,0010.00,0007.14,0006.56
2022-08-04 08:49:00,,0828.2,5.00,0.00,29.8,28.8,00.0,38.6,31.8,25.5,0000.0,0010.15,0007.17,0006.56
2022-08-04 08:50:00,,0828.2,5.00,0.00,29.9,28.9,00.0,38.6,31.8,25.5,0000.0,0010.19,0007.19,0006.56
2022-08-04 08:51:00,,0828.2,5.00,0.00,29.9,28.9,00.0,38.6,31.8,25.4,0000.0,0010.33,0007.21,0006.56
2022-08-04 08:52:00,,0828.2,5.00,0.00,29.9,28.9,00.0,38.6,31.9,25.4,0000.0,0010.45,0007.22,0006.55
2022-08-04 08:53:00,,0828.2,4.99,0.00,29.9,28.4,00.0,38.6,31.7,25.3,0000.0,0010.45,0007.22,0006.54
2022-08-04 08:54:00,,0828.3,5.00,0.00,29.8,27.7,00.0,38.6,31.6,25.4,0000.0,0010.32,0007.20,0006.54
2022-08-04 08:55:00,,0828.2,4.99,0.00,29.8,27.5,00.0,38.5,31.5,25.4,0000.0,0010.32,0007.20,0006.55
2022-08-04 08:56:00,,0828.2,5.02,0.00,29.7,27.5,00.0,38.5,31.4,25.6,0001.3,0010.17,0007.16,0006.54
2022-08-04 08:57:00,,0828.2,4.98,0.00,29.7,27.6,00.0,38.5,31.4,25.7,0001.4,0010.22,0007.16,0006.54
2022-08-04 08:58:00,,0828.2,5.01,0.00,29.6,27.7,00.0,38.5,31.4,25.7,0001.4,0010.26,0007.13,0006.54
2022-08-04 08:59:00,,0828.2,4.99,0.00,29.6,27.8,00.0,38.5,31.4,25.8,0001.4,0010.58,0007.13,0006.53
